Find Starlink 38285

NORAD ID: 100448 Int'l Des: 2026-193 Owner: SPXS Country: US Constellation: starlink operational

現在のビュー

3D地球を読み込み中...

About Starlink 38285

Starlink 38285 (NORAD 100448) is a starlink constellation satellite launched Aug 22, 2026 by SPXS of US. with a mass of 575.00 kg.

次回通過

Passes for default location (London). Set your location on the main map for personalized predictions.

高度履歴

Loading altitude history...

軌道要素

1 A0448U 26193R 26255.92454771 -.00468089 00000-0 -69924-2 0 9995
2 A0448 69.9989 95.2881 0003209 287.1412 72.9425 15.56408827 4560
Epoch: Sep 12, 2026 • Age: 7 hours

現在のステータス

高度 401.8 km
遠地点 / 近地点 N/A
速度 7.67 km/s
衛星直下点 14.07°N, 158.91°W
打ち上げ日 Aug 22, 2026
運用期間 21 days
タイプ internet

技術仕様

分類 Payload
質量 575.00 kg
乾燥質量 530.00 kg
総質量 575.00 kg
長さ 0.30 m
直径 4.10 m
スパン 29.00 m
形状 Box + pan
製造者 SPXS
バスタイプ Starlink V2MO
フェーズステータス In Orbit
所有者/国 SPXS/US

Most Searched